Station Historical Data
Daily Summary for October 25, 2017 Units:  Metric    English   Both
« Previous Day
Next Day »
Daily Weekly Monthly Yearly Custom
  High: Low: Average:
Temperature: 10.1 °C 6.5 °C 8.2 °C
Dew Point: 6.7 °C 2.7 °C 4.7 °C
Humidity: 89% 66% 79%
Wind Speed: 25.7km/h 0km/h 5.3km/h
Wind Gust: 33.8km/h - -
Wind- - SSW
Pressure: 1010 hPa 1004.3 hPa -
Precipitation: 0 mm    
Historical Graphs
 
 
Tabular Data for October 25, 2017
Time Temperature Dew Point Pressure Wind Wind Speed Wind Gust Humidity Rainfall Rate (Hourly)
00:04 10.1 °C 4.9 °C 1005.3 hPa SSW 9.7 km/h 22.5 km/h 70% 0 mm
00:09 10.1 °C 4.8 °C 1005.3 hPa South 17.7 km/h 24.1 km/h 70% 0 mm
00:14 10.1 °C 4.9 °C 1005.3 hPa WSW 16.1 km/h 30.6 km/h 70% 0 mm
00:19 10.1 °C 4.8 °C 1005.3 hPa South 11.3 km/h 29 km/h 70% 0 mm
00:24 10.1 °C 4.8 °C 1005.3 hPa South 14.5 km/h 19.3 km/h 70% 0 mm
00:29 9.9 °C 4.7 °C 1005 hPa SSW 12.9 km/h 22.5 km/h 70% 0 mm
00:34 9.9 °C 4.5 °C 1005 hPa SSW 4.8 km/h 33.8 km/h 69% 0 mm
00:39 9.7 °C 4.3 °C 1005 hPa South 9.7 km/h 17.7 km/h 69% 0 mm
00:44 9.6 °C 4.3 °C 1005 hPa SSW 8 km/h 19.3 km/h 70% 0 mm
00:49 9.5 °C 4.3 °C 1005 hPa SSW 8 km/h 19.3 km/h 70% 0 mm
00:54 9.5 °C 4.3 °C 1005 hPa SSW 8 km/h 22.5 km/h 70% 0 mm
00:59 9.4 °C 4.2 °C 1005 hPa SSW 8 km/h 22.5 km/h 70% 0 mm
01:04 9.5 °C 4.3 °C 1005 hPa SSW 8 km/h 20.9 km/h 70% 0 mm
01:09 9.4 °C 4.2 °C 1005 hPa South 11.3 km/h 19.3 km/h 70% 0 mm
01:14 9.4 °C 4.2 °C 1005 hPa SE 8 km/h 24.1 km/h 70% 0 mm
01:19 9.3 °C 4.1 °C 1005 hPa SSW 9.7 km/h 24.1 km/h 70% 0 mm
01:24 9.3 °C 4.1 °C 1005 hPa SSW 3.2 km/h 17.7 km/h 70% 0 mm
01:29 9.1 °C 3.9 °C 1005 hPa SSE 9.7 km/h 17.7 km/h 70% 0 mm
01:34 9.1 °C 3.9 °C 1005 hPa SW 17.7 km/h 22.5 km/h 70% 0 mm
01:39 9.1 °C 3.9 °C 1005 hPa SSW 11.3 km/h 19.3 km/h 70% 0 mm
01:44 9.1 °C 3.9 °C 1005 hPa SSW 1.6 km/h 19.3 km/h 70% 0 mm
01:49 8.9 °C 3.9 °C 1005 hPa SW 8 km/h 22.5 km/h 71% 0 mm
01:54 8.9 °C 3.9 °C 1005 hPa SSW 8 km/h 22.5 km/h 71% 0 mm
01:59 8.9 °C 3.9 °C 1005 hPa SSW 8 km/h 17.7 km/h 71% 0 mm
02:04 8.8 °C 3.8 °C 1004.6 hPa SSW 8 km/h 17.7 km/h 71% 0 mm
02:09 8.8 °C 4 °C 1004.6 hPa SSW 8 km/h 24.1 km/h 72% 0 mm
02:14 8.8 °C 3.8 °C 1005 hPa SSW 8 km/h 24.1 km/h 71% 0 mm
02:19 8.8 °C 3.8 °C 1004.6 hPa SSW 9.7 km/h 22.5 km/h 71% 0 mm
02:24 8.8 °C 3.8 °C 1004.6 hPa SSW 11.3 km/h 22.5 km/h 71% 0 mm
02:29 8.8 °C 3.8 °C 1004.6 hPa SSW 9.7 km/h 24.1 km/h 71% 0 mm
02:34 8.7 °C 3.8 °C 1004.6 hPa SW 8 km/h 20.9 km/h 71% 0 mm
02:39 8.7 °C 3.7 °C 1004.6 hPa South 11.3 km/h 22.5 km/h 71% 0 mm
02:44 8.6 °C 3.7 °C 1004.6 hPa South 6.4 km/h 19.3 km/h 71% 0 mm
02:49 8.6 °C 3.6 °C 1004.6 hPa SSW 8 km/h 22.5 km/h 71% 0 mm
02:54 8.5 °C 3.7 °C 1004.6 hPa SSW 9.7 km/h 19.3 km/h 72% 0 mm
02:59 8.5 °C 3.7 °C 1004.6 hPa SSW 9.7 km/h 25.7 km/h 72% 0 mm
03:04 8.4 °C 3.7 °C 1004.3 hPa SSW 9.7 km/h 25.7 km/h 72% 0 mm
03:09 8.4 °C 3.5 °C 1004.3 hPa SSW 9.7 km/h 24.1 km/h 71% 0 mm
03:14 8.4 °C 3.4 °C 1004.6 hPa SSW 9.7 km/h 24.1 km/h 71% 0 mm
03:19 8.5 °C 3.6 °C 1004.3 hPa SSW 9.7 km/h 22.5 km/h 71% 0 mm
03:24 8.4 °C 3.5 °C 1004.3 hPa SSW 9.7 km/h 22.5 km/h 71% 0 mm
03:29 8.4 °C 3.5 °C 1004.6 hPa SE 6.4 km/h 27.4 km/h 71% 0 mm
03:34 8.4 °C 3.3 °C 1004.6 hPa SSW 1.6 km/h 24.1 km/h 70% 0 mm
03:39 8.4 °C 3.3 °C 1004.3 hPa WSW 6.4 km/h 17.7 km/h 70% 0 mm
03:44 8.5 °C 3.3 °C 1004.3 hPa SW 3.2 km/h 29 km/h 70% 0 mm
03:49 8.6 °C 3.2 °C 1004.3 hPa SSW 14.5 km/h 20.9 km/h 69% 0 mm
03:54 8.5 °C 3.3 °C 1004.3 hPa South 11.3 km/h 24.1 km/h 70% 0 mm
03:59 8.5 °C 3.1 °C 1004.6 hPa SSW 6.4 km/h 29 km/h 69% 0 mm
04:04 8.4 °C 3 °C 1004.6 hPa SSW 9.7 km/h 29 km/h 69% 0 mm
04:09 8.4 °C 3 °C 1004.3 hPa SSW 9.7 km/h 22.5 km/h 69% 0 mm
04:14 8.4 °C 3.2 °C 1004.3 hPa SSW 9.7 km/h 22.5 km/h 70% 0 mm
04:19 8.3 °C 3.1 °C 1004.6 hPa SSW 9.7 km/h 25.7 km/h 70% 0 mm
04:24 8.3 °C 3.2 °C 1004.6 hPa SSW 9.7 km/h 25.7 km/h 70% 0 mm
04:29 8.2 °C 3.1 °C 1004.6 hPa SSW 8 km/h 24.1 km/h 70% 0 mm
04:34 8.2 °C 3.1 °C 1004.6 hPa SSW 12.9 km/h 17.7 km/h 70% 0 mm
04:39 8.3 °C 3.1 °C 1004.6 hPa SSW 9.7 km/h 20.9 km/h 70% 0 mm
04:44 8.3 °C 3.2 °C 1004.6 hPa SW 6.4 km/h 20.9 km/h 70% 0 mm
04:49 8.3 °C 3.2 °C 1004.6 hPa South 4.8 km/h 17.7 km/h 70% 0 mm
04:54 8.3 °C 3.1 °C 1004.6 hPa SSW 11.3 km/h 16.1 km/h 70% 0 mm
04:59 8.3 °C 3.2 °C 1004.6 hPa SSW 11.3 km/h 24.1 km/h 70% 0 mm
05:04 8.4 °C 3.3 °C 1004.6 hPa SW 17.7 km/h 17.7 km/h 70% 0 mm
05:09 8.5 °C 3.3 °C 1004.6 hPa South 11.3 km/h 24.1 km/h 70% 0 mm
05:14 8.6 °C 3.4 °C 1004.6 hPa SSW 11.3 km/h 24.1 km/h 70% 0 mm
05:19 8.6 °C 3.2 °C 1004.6 hPa SSW 11.3 km/h 22.5 km/h 69% 0 mm
05:24 8.7 °C 3.3 °C 1004.6 hPa SSW 11.3 km/h 22.5 km/h 69% 0 mm
05:29 8.7 °C 3.3 °C 1004.6 hPa SSW 11.3 km/h 24.1 km/h 69% 0 mm
05:34 8.7 °C 3.2 °C 1004.6 hPa South 25.7 km/h 25.7 km/h 68% 0 mm
05:39 8.7 °C 3.2 °C 1004.6 hPa South 11.3 km/h 27.4 km/h 68% 0 mm
05:44 8.8 °C 3.2 °C 1004.6 hPa SSW 12.9 km/h 27.4 km/h 68% 0 mm
05:49 8.8 °C 3.2 °C 1004.6 hPa SSW 11.3 km/h 29 km/h 68% 0 mm
05:54 8.8 °C 3 °C 1004.3 hPa SSW 11.3 km/h 29 km/h 67% 0 mm
05:59 8.8 °C 3 °C 1004.3 hPa SSW 11.3 km/h 25.7 km/h 67% 0 mm
06:04 8.8 °C 3 °C 1004.6 hPa SSW 8 km/h 19.3 km/h 67% 0 mm
06:09 8.8 °C 3 °C 1004.3 hPa South 11.3 km/h 25.7 km/h 67% 0 mm
06:14 8.8 °C 3 °C 1004.6 hPa WSW 3.2 km/h 20.9 km/h 67% 0 mm
06:19 8.8 °C 3 °C 1004.6 hPa SSW 9.7 km/h 24.1 km/h 67% 0 mm
06:24 8.8 °C 3 °C 1004.6 hPa SSW 9.7 km/h 24.1 km/h 67% 0 mm
06:29 8.8 °C 3 °C 1004.6 hPa SSW 9.7 km/h 19.3 km/h 67% 0 mm
06:34 8.8 °C 3 °C 1004.6 hPa SSW 9.7 km/h 24.1 km/h 67% 0 mm
06:39 8.7 °C 2.9 °C 1004.6 hPa SSW 11.3 km/h 22.5 km/h 67% 0 mm
06:44 8.8 °C 3 °C 1004.6 hPa SW 12.9 km/h 27.4 km/h 67% 0 mm
06:49 8.8 °C 3 °C 1004.6 hPa SSW 4.8 km/h 17.7 km/h 67% 0 mm
06:54 8.8 °C 2.8 °C 1004.6 hPa SSW 9.7 km/h 22.5 km/h 66% 0 mm
06:59 8.8 °C 3 °C 1004.6 hPa South 8 km/h 19.3 km/h 67% 0 mm
07:04 8.8 °C 3 °C 1004.3 hPa SSW 8 km/h 20.9 km/h 67% 0 mm
07:09 8.7 °C 2.7 °C 1004.6 hPa SSW 8 km/h 20.9 km/h 66% 0 mm
07:14 8.7 °C 2.7 °C 1004.6 hPa South 3.2 km/h 16.1 km/h 66% 0 mm
07:19 8.7 °C 2.7 °C 1004.6 hPa SW 8 km/h 25.7 km/h 66% 0 mm
07:24 8.7 °C 2.9 °C 1004.6 hPa SSW 9.7 km/h 25.7 km/h 67% 0 mm
07:29 8.7 °C 2.7 °C 1004.6 hPa SSW 9.7 km/h 20.9 km/h 66% 0 mm
07:34 8.7 °C 2.9 °C 1004.6 hPa SSW 17.7 km/h 24.1 km/h 67% 0 mm
07:39 8.7 °C 2.9 °C 1004.6 hPa South 4.8 km/h 20.9 km/h 67% 0 mm
07:44 8.7 °C 2.9 °C 1004.6 hPa SSW 16.1 km/h 22.5 km/h 67% 0 mm
07:49 8.8 °C 3 °C 1004.6 hPa SW 8 km/h 22.5 km/h 67% 0 mm
07:54 8.8 °C 3 °C 1004.6 hPa South 8 km/h 27.4 km/h 67% 0 mm
07:59 8.8 °C 3 °C 1004.6 hPa SSW 11.3 km/h 27.4 km/h 67% 0 mm
08:04 8.8 °C 3 °C 1005 hPa SSW 9.7 km/h 22.5 km/h 67% 0 mm
08:09 8.8 °C 3.2 °C 1004.6 hPa SSW 8 km/h 22.5 km/h 68% 0 mm
08:14 8.8 °C 3.2 °C 1005 hPa SSW 8 km/h 22.5 km/h 68% 0 mm
08:19 8.8 °C 3.2 °C 1005 hPa SSW 8 km/h 24.1 km/h 68% 0 mm
08:24 8.8 °C 3.4 °C 1005 hPa SSW 4.8 km/h 19.3 km/h 69% 0 mm
08:29 8.8 °C 3.4 °C 1005 hPa SW 16.1 km/h 19.3 km/h 69% 0 mm
08:34 8.9 °C 3.5 °C 1005 hPa SSW 9.7 km/h 19.3 km/h 69% 0 mm
08:39 8.9 °C 3.5 °C 1005 hPa SSW 14.5 km/h 20.9 km/h 69% 0 mm
08:44 8.9 °C 3.6 °C 1005 hPa SSW 4.8 km/h 25.7 km/h 69% 0 mm
08:49 8.9 °C 3.6 °C 1005.3 hPa South 3.2 km/h 19.3 km/h 69% 0 mm
08:54 9.1 °C 3.9 °C 1005.3 hPa WSW 12.9 km/h 19.3 km/h 70% 0 mm
08:59 9.1 °C 3.9 °C 1005.3 hPa SSW 11.3 km/h 22.5 km/h 70% 0 mm
09:04 9.2 °C 4 °C 1005.3 hPa SSW 9.7 km/h 29 km/h 70% 0 mm
09:09 9.1 °C 3.7 °C 1005.3 hPa SSW 11.3 km/h 29 km/h 69% 0 mm
09:14 9.1 °C 3.9 °C 1005.3 hPa SSW 11.3 km/h 22.5 km/h 70% 0 mm
09:19 9.1 °C 3.9 °C 1005.3 hPa SW 9.7 km/h 22.5 km/h 70% 0 mm
09:24 9.1 °C 3.9 °C 1005.3 hPa SW 11.3 km/h 22.5 km/h 70% 0 mm
09:29 9.1 °C 3.9 °C 1005.3 hPa SW 11.3 km/h 25.7 km/h 70% 0 mm
09:34 9.1 °C 4.1 °C 1005.3 hPa West 6.4 km/h 20.9 km/h 71% 0 mm
09:39 9.1 °C 4.1 °C 1005.3 hPa SW 8 km/h 20.9 km/h 71% 0 mm
09:44 9.1 °C 4.1 °C 1005.6 hPa SSW 6.4 km/h 22.5 km/h 71% 0 mm
09:49 9.1 °C 4.1 °C 1005.6 hPa West 9.7 km/h 16.1 km/h 71% 0 mm
09:54 9.1 °C 4.3 °C 1005.6 hPa SSW 4.8 km/h 20.9 km/h 72% 0 mm
09:59 9.1 °C 4.3 °C 1005.6 hPa SSW 11.3 km/h 30.6 km/h 72% 0 mm
10:04 8.9 °C 4.4 °C 1005.6 hPa WSW 9.7 km/h 19.3 km/h 73% 0 mm
10:09 8.8 °C 4.4 °C 1005.6 hPa SSW 11.3 km/h 27.4 km/h 74% 0 mm
10:14 8.7 °C 4.7 °C 1005.6 hPa SW 9.7 km/h 27.4 km/h 76% 0 mm
10:19 8.6 °C 4.6 °C 1005.6 hPa WSW 6.4 km/h 14.5 km/h 76% 0 mm
10:24 8.6 °C 4.8 °C 1005.6 hPa WSW 8 km/h 19.3 km/h 77% 0 mm
10:29 8.6 °C 4.8 °C 1005.6 hPa SW 8 km/h 19.3 km/h 77% 0 mm
10:34 8.6 °C 4.8 °C 1005.6 hPa SW 8 km/h 14.5 km/h 77% 0 mm
10:39 8.6 °C 4.8 °C 1005.6 hPa SSW 11.3 km/h 20.9 km/h 77% 0 mm
10:44 8.7 °C 4.8 °C 1005.6 hPa SSW 1.6 km/h 20.9 km/h 77% 0 mm
10:49 8.7 °C 4.9 °C 1005.6 hPa SW 8 km/h 20.9 km/h 77% 0.25 mm
10:54 8.7 °C 4.7 °C 1005.6 hPa SW 4.8 km/h 19.3 km/h 76% 0.25 mm
10:59 8.8 °C 4.9 °C 1005.6 hPa WSW 4.8 km/h 17.7 km/h 77% 0.25 mm
11:04 8.7 °C 4.9 °C 1005.6 hPa WSW 3.2 km/h 20.9 km/h 77% 0.25 mm
11:09 8.7 °C 5.1 °C 1005.6 hPa WSW 4.8 km/h 14.5 km/h 78% 0.25 mm
11:14 8.7 °C 5.1 °C 1006 hPa WSW 11.3 km/h 14.5 km/h 78% 0.25 mm
11:19 8.6 °C 5 °C 1006 hPa SW 8 km/h 20.9 km/h 78% 0.25 mm
11:24 8.6 °C 5.2 °C 1006 hPa SW 8 km/h 20.9 km/h 79% 0.25 mm
11:29 8.6 °C 5.3 °C 1006 hPa SW 8 km/h 14.5 km/h 80% 0.51 mm
11:34 8.7 °C 5.4 °C 1006 hPa SW 8 km/h 14.5 km/h 80% 0.51 mm
11:39 8.6 °C 5.3 °C 1006 hPa SW 8 km/h 19.3 km/h 80% 0.51 mm
11:44 8.6 °C 5.5 °C 1005.6 hPa SW 6.4 km/h 19.3 km/h 81% 0.76 mm
11:49 8.6 °C 5.5 °C 1006 hPa SW 6.4 km/h 14.5 km/h 81% 0.51 mm
11:54 8.5 °C 5.4 °C 1006 hPa SW 8 km/h 16.1 km/h 81% 0.51 mm
11:59 8.5 °C 5.4 °C 1006 hPa WSW 4.8 km/h 16.1 km/h 81% 1.02 mm
12:04 8.4 °C 5.7 °C 1006 hPa SSW 6.4 km/h 11.3 km/h 83% 1.27 mm
12:09 8.3 °C 5.8 °C 1006.3 hPa West 4.8 km/h 14.5 km/h 84% 1.27 mm
12:14 8.3 °C 5.9 °C 1006.3 hPa West 1.6 km/h 6.4 km/h 85% 1.78 mm
12:19 8.3 °C 5.9 °C 1006.3 hPa Calm   8 km/h 85% 2.03 mm
12:24 8.2 °C 6 °C 1006.3 hPa Calm   4.8 km/h 86% 2.54 mm
12:29 8.2 °C 5.9 °C 1006.3 hPa WSW 3.2 km/h 16.1 km/h 86% 2.54 mm
12:34 8.1 °C 6.1 °C 1006.3 hPa WSW 4.8 km/h 16.1 km/h 87% 2.54 mm
12:39 8.1 °C 6 °C 1006.3 hPa WSW 3.2 km/h 11.3 km/h 87% 2.79 mm
12:44 8 °C 5.8 °C 1006 hPa WSW 4.8 km/h 14.5 km/h 86% 2.54 mm
12:49 8.1 °C 6.1 °C 1006 hPa WSW 6.4 km/h 14.5 km/h 87% 2.79 mm
12:54 8.2 °C 6.2 °C 1006 hPa WSW 4.8 km/h 11.3 km/h 87% 2.79 mm
12:59 8.3 °C 6.1 °C 1006 hPa SSW 4.8 km/h 11.3 km/h 86% 2.54 mm
13:04 8.3 °C 6.1 °C 1006 hPa SW 1.6 km/h 11.3 km/h 86% 2.29 mm
13:14 8.3 °C 5.9 °C 1006 hPa SW 1.6 km/h 12.9 km/h 85% 2.03 mm
13:19 8.4 °C 6.2 °C 1006 hPa SW 3.2 km/h 9.7 km/h 86% 1.78 mm
13:24 8.3 °C 6.1 °C 1006 hPa SW 4.8 km/h 11.3 km/h 86% 1.52 mm
13:29 8.3 °C 6.1 °C 1006 hPa WSW 8 km/h 8 km/h 86% 1.27 mm
13:34 8.4 °C 6.2 °C 1006 hPa SW 4.8 km/h 8 km/h 86% 1.52 mm
13:39 8.3 °C 6.3 °C 1005.6 hPa WSW 4.8 km/h 11.3 km/h 87% 1.52 mm
13:44 8.5 °C 6.4 °C 1005.6 hPa WSW 4.8 km/h 11.3 km/h 87% 1.78 mm
13:49 8.6 °C 6.5 °C 1005.6 hPa WSW 4.8 km/h 11.3 km/h 87% 1.78 mm
13:54 8.6 °C 6.7 °C 1006 hPa SW 6.4 km/h 8 km/h 88% 1.78 mm
13:59 8.6 °C 6.7 °C 1006 hPa West 8 km/h 9.7 km/h 88% 1.78 mm
14:04 8.5 °C 6.6 °C 1006 hPa WSW 6.4 km/h 8 km/h 88% 1.78 mm
14:09 8.3 °C 6.4 °C 1006 hPa WSW 3.2 km/h 9.7 km/h 88% 1.78 mm
14:14 8.4 °C 6.6 °C 1006 hPa WSW 3.2 km/h 11.3 km/h 88% 1.52 mm
14:19 8.4 °C 6.3 °C 1006.3 hPa WSW 9.7 km/h 11.3 km/h 87% 1.52 mm
14:24 8.3 °C 6.3 °C 1006.3 hPa West 6.4 km/h 16.1 km/h 87% 1.52 mm
14:29 8.3 °C 6.1 °C 1006.3 hPa Calm   12.9 km/h 86% 1.52 mm
14:34 8.3 °C 6.1 °C 1006.3 hPa SSW 1.6 km/h 8 km/h 86% 1.27 mm
14:39 8.3 °C 6.1 °C 1006.3 hPa SW 4.8 km/h 4.8 km/h 86% 1.02 mm
14:44 8.2 °C 5.8 °C 1006.3 hPa SW 3.2 km/h 8 km/h 85% 0.76 mm
14:49 8.3 °C 6.1 °C 1006.3 hPa SW 3.2 km/h 8 km/h 86% 0.76 mm
14:54 8.4 °C 6.2 °C 1006.3 hPa West 3.2 km/h 8 km/h 86% 0.76 mm
14:59 8.4 °C 6.4 °C 1006.3 hPa Calm   4.8 km/h 87% 0.51 mm
15:04 8.5 °C 6.4 °C 1006.3 hPa Calm     87% 0.51 mm
15:09 8.4 °C 6.3 °C 1006.3 hPa Calm     87% 0.76 mm
15:14 8.3 °C 6.3 °C 1006.3 hPa Calm   1.6 km/h 87% 0.76 mm
15:19 8.3 °C 6.1 °C 1006.3 hPa WNW 1.6 km/h 11.3 km/h 86% 1.02 mm
15:24 8.2 °C 6.2 °C 1006.7 hPa WNW 1.6 km/h 11.3 km/h 87% 1.02 mm
15:29 8.3 °C 6.2 °C 1006.7 hPa Calm   4.8 km/h 87% 1.02 mm
15:34 8.3 °C 6.2 °C 1006.7 hPa Calm   4.8 km/h 87% 1.27 mm
15:39 8.3 °C 6.3 °C 1006.7 hPa Calm     87% 1.27 mm
15:44 8.4 °C 6.4 °C 1006.7 hPa Calm     87% 1.27 mm
15:49 8.6 °C 6.5 °C 1006.7 hPa Calm     87% 1.27 mm
15:54 8.5 °C 6.4 °C 1006.7 hPa Calm     87% 1.27 mm
15:59 8.4 °C 6.6 °C 1006.7 hPa Calm     88% 1.27 mm
16:04 8.4 °C 6.3 °C 1006.7 hPa Calm     87% 1.27 mm
16:09 8.3 °C 6.3 °C 1006.7 hPa Calm     87% 1.02 mm
16:14 8.3 °C 6.3 °C 1007 hPa Calm     87% 1.27 mm
16:19 8.3 °C 6.4 °C 1006.7 hPa Calm     88% 1.27 mm
16:24 8.4 °C 6.5 °C 1007 hPa Calm     88% 1.27 mm
16:29 8.3 °C 6.4 °C 1006.7 hPa Calm     88% 1.52 mm
16:34 8.4 °C 6.5 °C 1006.7 hPa Calm     88% 1.27 mm
16:39 8.2 °C 6.3 °C 1007 hPa Calm     88% 1.52 mm
16:44 8.2 °C 6.3 °C 1007 hPa Calm     88% 1.78 mm
16:49 8.2 °C 6.3 °C 1007 hPa Calm   6.4 km/h 88% 1.52 mm
16:54 8.1 °C 6.1 °C 1007.3 hPa Calm     87% 2.03 mm
16:59 8 °C 6.1 °C 1007.3 hPa Calm     88% 2.29 mm
17:04 8.1 °C 6.2 °C 1007.3 hPa Calm     88% 2.54 mm
17:09 8 °C 6.1 °C 1007.3 hPa Calm   3.2 km/h 88% 2.54 mm
17:14 8.1 °C 6.2 °C 1007.3 hPa Calm   4.8 km/h 88% 2.54 mm
17:19 8 °C 6.1 °C 1007.3 hPa Calm   4.8 km/h 88% 3.05 mm
17:24 7.9 °C 6 °C 1007.7 hPa Calm     88% 2.79 mm
17:29 7.9 °C 6.2 °C 1007.7 hPa Calm     89% 2.79 mm
17:34 7.8 °C 6.1 °C 1007.7 hPa Calm     89% 2.79 mm
17:44 7.8 °C 6.1 °C 1007.7 hPa Calm   3.2 km/h 89% 3.05 mm
17:49 7.8 °C 5.9 °C 1007.7 hPa SE 1.6 km/h 4.8 km/h 88% 3.05 mm
17:54 7.7 °C 5.8 °C 1008 hPa Calm   4.8 km/h 88% 2.79 mm
17:59 7.6 °C 5.9 °C 1008 hPa Calm   3.2 km/h 89% 2.54 mm
18:04 7.7 °C 5.9 °C 1008 hPa Calm   3.2 km/h 89% 2.54 mm
18:09 7.7 °C 6 °C 1008.4 hPa SSE 3.2 km/h 6.4 km/h 89% 2.54 mm
18:14 7.8 °C 6.1 °C 1008.4 hPa Calm   4.8 km/h 89% 2.79 mm
18:19 7.8 °C 6.1 °C 1008.4 hPa SSW 1.6 km/h 1.6 km/h 89% 2.79 mm
18:24 7.7 °C 5.9 °C 1008.7 hPa Calm   8 km/h 89% 3.05 mm
18:29 7.6 °C 5.9 °C 1008.7 hPa Calm   4.8 km/h 89% 3.3 mm
18:34 7.6 °C 5.9 °C 1008.7 hPa Calm   4.8 km/h 89% 3.56 mm
18:39 7.6 °C 5.8 °C 1008.7 hPa Calm   4.8 km/h 89% 3.3 mm
18:44 7.6 °C 5.8 °C 1009 hPa Calm   6.4 km/h 89% 3.05 mm
18:49 7.6 °C 5.8 °C 1009 hPa Calm   1.6 km/h 89% 3.3 mm
18:54 7.5 °C 5.8 °C 1009 hPa Calm     89% 3.05 mm
18:59 7.4 °C 5.7 °C 1008.7 hPa SSE 1.6 km/h 9.7 km/h 89% 3.3 mm
19:04 7.4 °C 5.7 °C 1008.7 hPa SSE 1.6 km/h 6.4 km/h 89% 3.05 mm
19:09 7.4 °C 5.7 °C 1008.7 hPa SSE 1.6 km/h 6.4 km/h 89% 3.05 mm
19:14 7.4 °C 5.7 °C 1009 hPa SSE 1.6 km/h 6.4 km/h 89% 2.54 mm
19:19 7.4 °C 5.7 °C 1009 hPa Calm   6.4 km/h 89% 1.78 mm
19:24 7.3 °C 5.7 °C 1009 hPa South 1.6 km/h 8 km/h 89% 1.78 mm
19:29 7.3 °C 5.7 °C 1009 hPa SSW 1.6 km/h 8 km/h 89% 1.52 mm
19:34 7.4 °C 5.7 °C 1009 hPa SSW 1.6 km/h 8 km/h 89% 1.52 mm
19:39 7.3 °C 5.7 °C 1009 hPa SW 3.2 km/h 6.4 km/h 89% 1.78 mm
19:44 7.3 °C 5.6 °C 1009.4 hPa SW 1.6 km/h 4.8 km/h 89% 1.78 mm
19:54 7.3 °C 5.6 °C 1009.4 hPa WNW 1.6 km/h 4.8 km/h 89% 2.03 mm
19:59 7.2 °C 5.6 °C 1009.4 hPa Calm   6.4 km/h 89% 2.29 mm
20:04 7.1 °C 5.4 °C 1009.4 hPa Calm     89% 2.79 mm
20:09 6.9 °C 5.3 °C 1009.4 hPa Calm   1.6 km/h 89% 3.05 mm
20:14 6.8 °C 5.1 °C 1009.4 hPa Calm   1.6 km/h 89% 3.05 mm
20:19 6.7 °C 5 °C 1009.4 hPa Calm   1.6 km/h 89% 3.3 mm
20:24 6.7 °C 5 °C 1009.4 hPa Calm     89% 3.05 mm
20:29 6.7 °C 5 °C 1009.7 hPa Calm     89% 3.05 mm
20:34 6.7 °C 5 °C 1009.7 hPa Calm     89% 3.05 mm
20:39 6.7 °C 5.1 °C 1009.4 hPa Calm     89% 3.3 mm
20:44 6.8 °C 5.1 °C 1009.4 hPa Calm   1.6 km/h 89% 3.05 mm
20:49 6.8 °C 5.1 °C 1009.4 hPa Calm   1.6 km/h 89% 3.05 mm
20:54 6.7 °C 5 °C 1009.4 hPa Calm   3.2 km/h 89% 2.79 mm
20:59 6.6 °C 4.9 °C 1009.4 hPa Calm   4.8 km/h 89% 2.29 mm
21:04 6.6 °C 4.9 °C 1009.4 hPa Calm     89% 1.78 mm
21:09 6.6 °C 4.9 °C 1009.4 hPa Calm     89% 1.52 mm
21:14 6.6 °C 4.9 °C 1009.4 hPa Calm     89% 1.52 mm
21:19 6.6 °C 4.9 °C 1009.4 hPa Calm     89% 1.27 mm
21:24 6.6 °C 4.9 °C 1009.4 hPa Calm     89% 1.27 mm
21:29 6.7 °C 5 °C 1009.7 hPa Calm     89% 1.02 mm
21:34 6.7 °C 5 °C 1009.7 hPa Calm     89% 0.76 mm
21:39 6.7 °C 5 °C 1009.7 hPa Calm     89% 0.25 mm
21:44 6.7 °C 5 °C 1009.7 hPa SSW 4.8 km/h 6.4 km/h 89% 0.25 mm
21:49 6.6 °C 4.9 °C 1010 hPa South 1.6 km/h 8 km/h 89% 0 mm
21:54 6.6 °C 4.9 °C 1010 hPa Calm   4.8 km/h 89% 0 mm
21:59 6.6 °C 4.9 °C 1010 hPa Calm   4.8 km/h 89% 0 mm
22:04 6.6 °C 4.9 °C 1010 hPa Calm     89% 0 mm
22:09 6.6 °C 4.9 °C 1010 hPa Calm     89% 0 mm
22:14 6.6 °C 4.9 °C 1010 hPa Calm     89% 0 mm
22:19 6.6 °C 4.9 °C 1010 hPa Calm   6.4 km/h 89% 0 mm
22:24 6.6 °C 4.9 °C 1010 hPa Calm   6.4 km/h 89% 0 mm
22:29 6.6 °C 4.9 °C 1010 hPa South 1.6 km/h 6.4 km/h 89% 0 mm
22:34 6.6 °C 4.9 °C 1010 hPa Calm   9.7 km/h 89% 0 mm
22:39 6.5 °C 4.8 °C 1009.7 hPa SSW 3.2 km/h 6.4 km/h 89% 0 mm
22:44 6.5 °C 4.8 °C 1009.7 hPa Calm   6.4 km/h 89% 0 mm
22:49 6.6 °C 4.9 °C 1010 hPa Calm   11.3 km/h 89% 0 mm
22:54 6.5 °C 4.8 °C 1009.7 hPa SSW 6.4 km/h 8 km/h 89% 0 mm
22:59 6.6 °C 4.9 °C 1009.7 hPa Calm   6.4 km/h 89% 0 mm
23:04 6.6 °C 4.9 °C 1009.7 hPa Calm   6.4 km/h 89% 0 mm
23:09 6.6 °C 4.9 °C 1009.7 hPa Calm   4.8 km/h 89% 0 mm
23:14 6.6 °C 4.9 °C 1009.7 hPa Calm     89% 0 mm
23:19 6.6 °C 4.9 °C 1009.7 hPa Calm     89% 0 mm
23:24 6.6 °C 4.9 °C 1009.7 hPa Calm     89% 0 mm
23:29 6.6 °C 4.9 °C 1009.7 hPa Calm     89% 0 mm
23:34 6.6 °C 4.9 °C 1009.4 hPa Calm     89% 0 mm
23:39 6.6 °C 4.9 °C 1009.7 hPa Calm     89% 0 mm
23:44 6.6 °C 4.9 °C 1009.7 hPa Calm     89% 0 mm
23:49 6.6 °C 4.9 °C 1009.7 hPa Calm     89% 0 mm
23:54 6.6 °C 4.9 °C 1009.7 hPa Calm     89% 0 mm
23:59 6.5 °C 4.8 °C 1009.7 hPa Calm     89% 0 mm
Buffalo, New York, USA
Compliments of Weather Underground - 2.5 mb